[ hide orbit diagram ]
For accurate long-term ephemerides, please instead use our Horizons system.This orbit viewer was implemented using two-body methods, and hence should not be used for determining accurate long-term trajectories (over several years or decades) or planetary encounter circumstances.
Orbital Elements at Epoch 2459000.5 (2020-May-31.0) TDB
Reference: JPL 37 (heliocentric ecliptic J2000)
Element | Value | Uncertainty (1-sigma) | Units |
e | .2132717447780993 | 3.8057e-08 | |
a | 3.117384522242798 | 1.4571e-08 | au |
q | 2.452534486039835 | 1.1959e-07 | au |
i | 15.50722218047952 | 4.6761e-06 | deg |
node | 301.1840661850235 | 1.4586e-05 | deg |
peri | 72.05470559627001 | 1.7774e-05 | deg |
M | 160.9381347160407 | 1.0541e-05 | deg |
tp | 2458101.746795566532 (2017-Dec-14.24679557) | 5.6439e-05 | TDB |
period | 2010.407006188571 5.50 | 1.4096e-05 3.859e-08 | d yr |
n | .1790682179736857 | 1.2555e-09 | deg/d |
Q | 3.782234558445762 | 1.7679e-08 | au |
|
| | Orbit Determination Parameters
Additional Information
|
[ show covariance matrix ]
Physical Parameter Table
Parameter |
Symbol |
Value |
Units |
Sigma |
Reference |
Notes |
absolute magnitude |
H |
11.5 |
|
n/a |
MPO256869 |
|
diameter |
diameter |
31.761 |
km |
0.497 |
urn:nasa:pds:neowise_diameters_albedos::2.0[mainbelt] (http://adsabs.harvard.edu/abs/2011ApJ...741...68M) |
|
rotation period |
rot_per |
8.574 |
h |
n/a |
LCDB (Rev. 2020-October); Warner et al., 2009 |
Published Reference List: [Behrend, R. (2006) Observatoire de Geneve web site, http://obswww.unige.ch/~behrend/page_cou.html] [Durech, J.; Hanus, J.; Oszkiewsicz, D.; Vanco, R. (2016) Astron. Astrophys. 587, A48.] [Hanus, J.; Delbo, M.; Durech, J.; Ali-Lagoa, V. (2018) Icarus 309, 297-337.] |
geometric albedo |
albedo |
0.030 |
|
0.001 |
urn:nasa:pds:neowise_diameters_albedos::2.0[mainbelt] (http://adsabs.harvard.edu/abs/2011ApJ...741...68M) |
|
|
998 Bodea (A923 PC) Discovered 1923-Aug-06 by Reinmuth, K. at Heidelberg |
Reference: DISCOVERY.DB | Last Updated: 2003-08-29 |
|
[ show close-approach data ]
|